This is the latest recevied weather packets stored in our database for station/object ED3YAB-7. If no packets are shown the sender has not sent any weather packets the latest 10 day(s).
| Time | Temp. | Humidity | Pressure | Rain* | Wind** | Luminosity | Snow |
|---|---|---|---|---|---|---|---|
| 1778118148 | 10° C | 65% | 1018.6 hPa | - | - | - | - |
| 1778116947 | 10.56° C | 63% | 1018.5 hPa | - | - | - | - |
| 1778115747 | 11.11° C | 63% | 1018.6 hPa | - | - | - | - |
| 1778114547 | 10.56° C | 62% | 1018.8 hPa | - | - | - | - |
| 1778113343 | 11.11° C | 62% | 1018.8 hPa | - | - | - | - |
| 1778112146 | 11.11° C | 63% | 1018.9 hPa | - | - | - | - |
| 1778109743 | 11.11° C | 62% | 1018.9 hPa | - | - | - | - |
| 1778107346 | 11.11° C | 61% | 1018.8 hPa | - | - | - | - |
| 1778106141 | 12.22° C | 59% | 1018.8 hPa | - | - | - | - |
| 1778104941 | 12.22° C | 59% | 1018.6 hPa | - | - | - | - |
| 1778104599 | 11.67° C | 59% | 1018.6 hPa | - | - | - | - |
| 1778103399 | 12.22° C | 58% | 1018.7 hPa | - | - | - | - |
| 1778102199 | 12.78° C | 55% | 1018.6 hPa | - | - | - | - |
| 1778100999 | 13.33° C | 53% | 1018.5 hPa | - | - | - | - |
| 1778099806 | 13.89° C | 51% | 1018.3 hPa | - | - | - | - |
| 1778099799 | 13.89° C | 51% | 1018.3 hPa | - | - | - | - |
| 1778098606 | 14.44° C | 50% | 1017.9 hPa | - | - | - | - |
| 1778098599 | 14.44° C | 50% | 1017.9 hPa | - | - | - | - |
| 1778097398 | 15° C | 49% | 1017.6 hPa | - | - | - | - |
| 1778096206 | 15° C | 47% | 1017.3 hPa | - | - | - | - |
| 1778096198 | 15° C | 47% | 1017.3 hPa | - | - | - | - |
| 1778095000 | 15.56° C | 44% | 1016.9 hPa | - | - | - | - |
| 1778093798 | 16.67° C | 40% | 1016.6 hPa | - | - | - | - |
| 1778092605 | 25° C | 26% | 1016.2 hPa | - | - | - | - |
| 1778092598 | 25° C | 26% | 1016.2 hPa | - | - | - | - |
* Rain since midnight (hover to see other rain measurements)
** Current wind speed in m/s (hover to see current wind gust speed)